Regional Weather Roundup
Issued by NWS

Home | Current Version | Previous Version | Graphics & Text | Print | Product List | Glossary Off
Versions: 1 2 3 4 5 6 7 8 9 10 11 12 13 14 15 16 17 18 19 20 21 22 23 24 25 26 27 28 29 30 31 32 33 34 35 36 37 38 39 40 41 42 43 44 45 46 47 48 49 50

000
ASUS43 KDTX 300810
RWRMI
MICHIGAN HOURLY REGIONAL WEATHER ROUNDUP
NATIONAL WEATHER SERVICE DETROIT/PONTIAC MI
400 AM EDT TUE AUG 30 2016

NOTE: "FAIR" INDICATES FEW OR NO CLOUDS BELOW 12,000 FEET WITH NO
SIGNIFICANT WEATHER AND/OR OBSTRUCTION TO VISIBILITY.

MIZ047>049-052>055-059>063-066>070-074>076-081>083-300900-
SOUTHEAST LOWER MICHIGAN

CITY           SKY/WX    TMP DP  RH WIND       PRES   REMARKS
ADRIAN         CLOUDY    62  62 100 CALM      30.21F
ALMA           MOCLDY    67  67 100 SW5       30.18F
ANN ARBOR      FOG       63  63 100 CALM      30.20S VSB 1/2
BAD AXE        PTCLDY    62  58  88 S3        30.19S
CARO           PTCLDY    61  60  97 CALM      30.18S FOG
DETROIT CITY   CLEAR     68  67  96 CALM      30.19F
DETROIT        CLEAR     68  66  93 CALM      30.20S FOG
FLINT          PTCLDY    65  63  93 CALM      30.20S
GROSSE ILE     CLEAR     66  65  96 CALM      30.18F
HILLSDALE      CLOUDY    66  62  87 S5        30.20F
HOWELL         CLOUDY    67  65  92 SW3       30.20S

CITY           SKY/WX    TMP DP  RH WIND       PRES   REMARKS
JACKSON        CLOUDY    67  64  90 CALM      30.20F
LAMBERTVILLE   FOG       64  62  95 CALM      30.20F VSB 1/4
LANSING        CLOUDY    70  65  84 S3        30.19F
LAPEER         FAIR      61  61  99 CALM      30.20F
MASON          CLOUDY    67  64  89 CALM      30.19F
MONROE         MOCLDY    62  62 100 N5        30.18F FOG
MT. CLEMENS    MOCLDY    65  63  94 S2        30.17F
PONTIAC        CLEAR     67  64  90 CALM      30.20S
PORT HURON     PTCLDY    59  59 100 CALM      30.19F FOG
TRI CITIES     CLOUDY    67  66  97 CALM      30.18F
MIDLAND        FAIR      64  64 100 CALM      30.17S
TROY           CLOUDY    70  65  84 CALM      30.21F
SAGINAW HB     CLOUDY    64  63  94 SE3       30.17F
$$
MIZ043>046-050>051-056>058-064>065-071>073-077>080-300900-
SOUTHWEST LOWER MICHIGAN

CITY           SKY/WX    TMP DP  RH WIND       PRES   REMARKS
BATTLE CREEK   CLOUDY    68  65  90 S6        30.19F
BENTON HARBOR  CLOUDY    74  70  87 SE3       30.16F
BIG RAPIDS     CLOUDY    65  64  98 CALM      30.17F
COLDWATER      PTCLDY    67  64  90 CALM      30.19F
FREMONT        FAIR      66  66  98 CALM      30.17F FOG
HOLLAND        CLOUDY    71  69  93 CALM      30.17F
GRAND RAPIDS   CLOUDY    69  66  90 S3        30.18F
IONIA          FAIR      70  66  88 S5        30.17F
KALAMAZOO      CLOUDY    72  67  84 S7        30.19F
LUDINGTON      MOCLDY    64  64 100 CALM      30.16S FOG
MARSHALL       CLOUDY    69  64  83 CALM      30.19F
MOUNT PLEASANT CLOUDY    65  64  98 CALM      30.17S FOG
MUSKEGON       CLOUDY    71  68  90 CALM      30.17F
SOUTH HAVEN    RAIN      73  72  97 CALM      30.18S
$$
MIZ016>042-300900-
NORTHERN LOWER MICHIGAN

CITY           SKY/WX    TMP DP  RH WIND       PRES   REMARKS
ALPENA         CLEAR     65  61  87 SW3       30.14F
BEAVER ISLAND  MOCLDY    71  68  90 SW9G16    30.11F
BELLAIRE       CLOUDY    69  66  91 CALM      30.15R
CADILLAC       FOG       62  62  97 SW5       30.18S VSB 1/4
CHARLEVOIX     PTCLDY    71  64  80 S8        30.16R
FRANKFORT      CLEAR     68  66  93 CALM      30.15S
GAYLORD        CLEAR     67  63  87 SW3       30.17F
GRAYLING         N/A     62  62  99 CALM      30.18S FOG
HARBOR SPRINGS PTCLDY    70  65  85 CALM      30.13S
HOUGHTON LAKE  PTCLDY    67  64  90 S7        30.18F
MANISTEE       PTCLDY    63  63 100 CALM      30.15F FOG
OSCODA         CLEAR     65  65  98 SW6       30.15F
PELLSTON       MOCLDY    72  62  71 VRB3      30.12S
ROGERS CITY    PTCLDY    68  64  85 SW8       30.13S
TRAVERSE CITY  CLEAR     70  65  84 CALM      30.13F
$$
MIZ007>008-015-300900-
EASTERN UPPER MICHIGAN

CITY           SKY/WX    TMP DP  RH WIND       PRES   REMARKS
KINROSS        CLOUDY    67  66  97 VRB6      30.09F
MACKINAC ISLAN MOCLDY    71  63  74 SW9G16    30.10S
NEWBERRY       MOCLDY    69  68  96 SW8       30.09R
S. S. MARIE    MOCLDY    66  64  93 CALM      30.09S
$$
MIZ004>006-011>014-085-300900-
CENTRAL UPPER MICHIGAN

CITY           SKY/WX    TMP DP  RH WIND       PRES   REMARKS
MANISTIQUE     MOCLDY    71  68  92 W3        30.10R
ESCANABA       CLOUDY    69  69 100 CALM      30.11R
MENOMINEE      CLOUDY   N/A N/A N/A MISG        N/A
SAWYER-GWINN   CLOUDY    68  66  93 SW3       30.12R
$$
MIZ001>003-009>011-084-300900-
WESTERN UPPER MICHIGAN

CITY           SKY/WX    TMP DP  RH WIND       PRES   REMARKS
IRON MOUNTAIN  LGT RAIN  70  67  90 CALM      30.11F
HOUGHTON       CLOUDY    69  65  86 W15       30.10R
IRONWOOD       CLOUDY    64  64 100 SW3       30.14F FOG
$$

ABBREVIATIONS USED IN REMARKS
   TC - TEMPERATURE IN CELSIUS
  WCI - WIND CHILL INDEX
   HX - HEAT INDEX
  VSB - VISIBILITY





USA.gov is the U.S. government's official web portal to all federal, state and local government web resources and services.